Terug naar catalogus

STARLINK-2105

ActiefCommunicatieVLEO
NORAD 47385·PAYLOAD·🇺🇸 United States

Gelanceerd Jan 20, 2021 vanaf Cape Canaveral Space Force Station

Loading…

Volgende Passages (komende 24 uur)

TLE

VersSource: CelesTrak SupGP

Epoch: Sep 14, 2026, 20:49 UTC

1 47385C 21005AN  26257.86784722  .00047470  00000+0  15269-2 0  2574
2 47385  53.1584 236.6972 0001529  97.0875 314.0234 15.31670622    14

Volg STARLINK-2105 in realtime met AllMySat

Download on the App Store